Regional Weather Roundup
Issued by NWS Upton, NY

Home | Current Version | Previous Version | Text Only | Print | Product List | Glossary On
Versions: 1 2 3 4 5 6 7 8 9 10 11 12 13 14 15 16 17 18 19 20 21 22 23 24 25 26 27 28 29 30 31 32 33 34 35 36 37 38 39 40 41 42 43 44 45 46 47 48 49 50
000
ASUS41 KOKX 011705
RWROKX

REGIONAL WEATHER ROUNDUP
NATIONAL WEATHER SERVICE NEW YORK NY
1200 PM EST SUN MAR 01 2015

NOTE: "FAIR" INDICATES FEW OR NO CLOUDS BELOW 12,000 FEET WITH NO
SIGNIFICANT WEATHER AND/OR OBSTRUCTIONS TO VISIBILITY.

NYZ071-072-176-178-NJZ106-104-011800-
NEW YORK CITY METRO AREA


CITY           SKY/WX    TMP DP  RH WIND       PRES   REMARKS
CENTRAL PARK   CLOUDY    30   6  36 VRB6G20   30.60F WCI  24
LAGUARDIA APRT FLURRIES  30   7  37 SW15      30.59F WCI  19
KENNEDY INTL   FLURRIES  29  18  63 SW13      30.62S WCI  19
NEWARK/LIBERTY CLOUDY    29   7  39 S13G18    30.59F WCI  19
BRNX BOT. GARD   N/A    N/A N/A N/A S6        30.58F
TETERBORO      CLOUDY    30   5  34 S12       30.58F WCI  20
$$

NYZ177-179-078>081-011800-
LONG ISLAND NEW YORK

CITY           SKY/WX    TMP DP  RH WIND       PRES   REMARKS
FARMINGDALE    LGT SNOW  28  19  69 SW14      30.59S WCI  17
ISLIP          CLOUDY    30  15  53 SW8       30.58F WCI  22
SHIRLEY        CLOUDY    32  18  56 SW6       30.60F WCI  26
WESTHAMPTON    CLOUDY    32  17  54 S9        30.60F WCI  24
MONTAUK POINT    N/A     32  17  54 CALM      30.60F
$$

NYZ052-065-067-011800-
HUDSON VALLEY

CITY           SKY/WX    TMP DP  RH WIND       PRES   REMARKS
WHITE PLAINS   FLURRIES  26  10  50 VRB5      30.55F WCI  20
NEWBURGH       LGT SNOW  21  18  86 CALM      30.56F
MONTGOMERY     LGT SNOW  21  16  81 CALM      30.54F
POUGHKEEPSIE   LGT SNOW  22  18  85 W3        30.57F FOG
ALBANY         LGT SNOW  20  12  71 S14       30.51F WCI   7
$$

NJZ001-105-106-008-010-013-015-019>022-104-011800-
NEW JERSEY

CITY           SKY/WX    TMP DP  RH WIND       PRES   REMARKS
NEWARK/LIBERTY CLOUDY    29   7  39 S13G18    30.59F WCI  19
TETERBORO      CLOUDY    30   5  34 S12       30.58F WCI  20
CALDWELL       CLOUDY    27   7  42 CALM      30.57F
MORRISTOWN     CLOUDY    28   5  37 SW8       30.59F WCI  20
SOMERVILLE     LGT SNOW  27  10  49 S8        30.56F WCI  19
SUSSEX         MIX PCPN  22  13  68 SW3       30.52F
ANDOVER          N/A     25   5  42 VRB6      30.52F WCI  18
TRENTON        LGT SNOW  26  15  63 S10       30.58F WCI  16
MILLVILLE      LGT SNOW N/A N/A N/A VRB5      30.57F
ATLANTIC CITY  LGT SNOW  27  23  85 VRB3      30.58F FOG
WRIGHTSTOWN    LGT SNOW  24  19  83 S8        30.57F WCI  15
TOMS RIVER     CLOUDY    25  21  86 SW5       30.59F WCI  19
BELMAR         CLOUDY    25  16  68 SW7       30.59F WCI  17
$$

PAZ047>061-062-071-011800-
EASTERN PENNSYLVANIA

CITY           SKY/WX    TMP DP  RH WIND       PRES   REMARKS
PHILADELPHIA   LGT SNOW  26  21  81 S6        30.59F WCI  19
ALLENTOWN      LGT SNOW  23  18  80 SW3       30.54F VSB 3/4
SCRANTON       LGT SNOW  24  15  68 SW8       30.44F WCI  15
$$

CTZ002-004>006-009-010-012-RIZ004-006-007-MAZ004-011-015-011800-
SOUTHERN NEW ENGLAND
 IN CT

CITY           SKY/WX    TMP DP  RH WIND       PRES   REMARKS
BRADLEY INTL   LGT SNOW  24  17  74 S7        30.57F VSB 1   WCI  16
HARTFORD       LGT SNOW  24  19  81 VRB5      30.60F VSB 3/4 WCI  18
DANBURY        SNOW      22  16  78 CALM      30.58S VSB 1/2
WTRBRY/OXFORD  LGT SNOW  21  12  68 CALM      30.54F VSB 1
BRIDGEPORT     LGT SNOW  27  17  66 CALM      30.60F
MERIDEN        LGT SNOW  24  20  84 CALM      30.59F FOG
NEW HAVEN      CLOUDY    26  15  63 W3        30.58F
CHESTER        PTSUNNY   28  21  74 CALM      30.57F
GROTON         CLOUDY    28  14  55 S5        30.59F WCI  23
WILLIMANTIC    LGT SNOW  26  17  68 S6        30.58F WCI  19

 IN RI

CITY           SKY/WX    TMP DP  RH WIND       PRES   REMARKS
PROVIDENCE     CLOUDY    28  10  46 S8        30.59F WCI  20
BLOCK ISLAND   CLOUDY    30  16  55 S7        30.58F WCI  23
WESTERLY       CLOUDY    29  16  58 S6        30.60F WCI  23

 IN MA

CITY           SKY/WX    TMP DP  RH WIND       PRES   REMARKS
BOSTON         CLOUDY    25  11  55 CALM      30.58F
WORCESTER      CLOUDY    24   6  46 SW10      30.49F WCI  14
WESTFIELD      LGT SNOW  22  13  68 S9        30.55F WCI  12
PROVINCETOWN   CLOUDY    28  10  47 S9        30.59F WCI  20
NANTUCKET      CLOUDY    30  16  56 SE8       30.58F WCI  22
$$

ANZ330-335-338-340-345-350-353-355-011800-
COASTAL MARINE OBSERVATIONS


STATION/POSITION TIME  SKY/WX   TEMP    WIND        PRES    VSBY  WAVE
                                AIR SEA DIR/SP/G                  HT/PER
                 (UTC)          (F)     (DEG/KT/KT) (MB)    (MI)  (FT/S)
NY HARB ENTRANCE 1700            29 39  220/ 17/ 21 1036.3          2/ 9
4S FIRE IS       1600               32                N/A           1/ 8
20S FIRE ISLAND  1600               37              1037.0          1/ 9
23SW MTP         1700                                 N/A           2/ 9
HUDSON CANYON    NOT AVBL
EXECUTION ROCKS  NOT AVBL
WESTERN LI SOUND NOT AVBL
CENTRAL LI SOUND NOT AVBL
EASTERN LI SOUND NOT AVBL
ROBBINS REEF     1700            28     200/  5/  8 1034.8
$$


>>>>>>>>>>>>>>>>>>>>>>>>>>>> KEY <<<<<<<<<<<<<<<<<<<<<<<<<<<
>                                                          <
>     SKY/WX - SKY CONDITION/PRESENT WEATHER               <
>     TMP    - TEMPERATURE IN FAHRENHEIT                   <
>     DP     - DEWPOINT IN FAHRENHEIT                      <
>     RH     - RELATIVE HUMIDITY IN PERCENT                <
>     WIND   - DIRECTION AND SPEED IN MPH                  <
>     PRES   - MEAN SEA LEVEL PRESSURE IN INCHES OF HG     <
>     WCI    - WIND CHILL INDEX                            <
>     VSB    - VISIBILITY IN MILES                         <
>     HX     - HEAT INDEX                                  <
>     TC     - TEMPERATURE IN CELSIUS                      <
>     VRB    - VARIABLE WIND DIRECTION                     <
>                                                          <
>>>>>>>>>>>>>>>>>>>>>>>>>>>> KEY <<<<<<<<<<<<<<<<<<<<<<<<<<<





USA.gov is the U.S. government's official web portal to all federal, state and local government web resources and services.